Location: Chisholm
(54.9102°N, 114.1701°W)
Time: 10:50:25
(UTC+00:00)

N. Korean satellite - Pass Details

Date: 06 December 2021
Orbit: 447 x 491 km, 97.3° (Epoch: 24 January)

Event Time Altitude Azimuth Distance (km) Brightness Sun altitude
Rises 11:43:51 0° 30° (NNE) 2,471 10.6 -33.1°
Reaches altitude 10° 11:47:06 10° 65° (ENE) 1,586 9.9 -32.7°
Maximum altitude 11:48:22 12° 87° (E) 1,481 9.8 -32.5°
Drops below altitude 10° 11:49:39 10° 109° (ESE) 1,579 9.9 -32.3°
Sets 11:52:51 0° 144° (SE) 2,444 10.5 -31.8°
